Simultaneous Nadir Overpasses (SNOs) Predictions

Prediction of SNOs between METOP-A and TERRA Satellite Orbit:

Table of predicted SNOs for the next 14.0 days since TLE Epoch: 2/22/2013
Index Date (METOP-A) Time (METOP-A) Lat,Lon (METOP-A) SZA (METOP-A ) Date (TERRA) Time (TERRA) Lat,Lon (TERRA) SZA (TERRA ) Distance(km) Time Diff (sec)
1 02/23/2013 04:24:35 -81.36, -18.21 86.46 02/23/2013 04:24:44 -81.35, -18.11 86.44 1.74 9
2 02/23/2013 05:15:14 81.36, 149.68 93.60 02/23/2013 05:14:10 81.36, 149.67 93.57 0.24 64
3 02/25/2013 23:58:52 -81.36, 48.24 87.48 02/25/2013 23:59:00 -81.35, 48.30 87.47 1.11 8
4 02/26/2013 00:49:31 81.36,-143.91 92.57 02/26/2013 00:48:26 81.36,-143.95 92.54 0.64 65
5 02/28/2013 19:33:08 -81.36, 114.93 88.49 02/28/2013 19:33:16 -81.37, 115.02 88.47 1.76 8
6 02/28/2013 20:23:48 81.36, -77.65 91.51 02/28/2013 20:22:43 81.35, -77.63 91.48 0.84 65
7 03/03/2013 15:07:23 -81.36,-178.52 89.53 03/03/2013 15:07:33 -81.36,-178.71 89.55 3.29 10
8 03/03/2013 15:58:03 81.36, -11.14 90.46 03/03/2013 15:56:59 81.36, -11.01 90.45 2.25 64
9 03/06/2013 10:41:36 -81.36,-112.12 90.60 03/06/2013 10:41:48 -81.37,-112.14 90.59 0.86 12




NCC Satellite Simultaneous Nadir Overpasses (SNOs) Prediction Service
